Location: Ocean City
(38.3360°N, 75.0850°W)
Time: 21:32:18
(UTC-05:00)

deb Explorer IX - Pass Details

Date: 19 November 2019
Orbit: 546 x 1104 km, 38.8° (Epoch: 14 December)

Event Time Altitude Azimuth Distance (km) Brightness Sun altitude
Exits shadow 04:10:59 51° 101° (E) 886 ? -30.2°
Drops below altitude 10° 04:14:29 10° 100° (E) 2,061 ? -29.5°
Sets 04:16:40 0° 100° (E) 2,902 ? -29.1°
